Home   Weather   Shizuoka   Past weeks
Flag for Japan

Past Weather in Shizuoka, Japan — Yesterday and Last 2 Weeks

Now
54 °F

Cool.


Feels Like: 54 °F
Forecast: 68 / 45 °F
Wind: 3 mph from East

Location: Omaezaki

Current Time: Mar 19, 2019 at 8:26:40 pm

Latest Report: Mar 19, 2019 at 7:00 pm


Visibility: 13 mi

Pressure: 29.93 "Hg

Humidity: 79%

Dew Point: 47 °F

Location of ShizuokaLocation

Past Weather in Shizuoka — Graph

°F

Shizuoka Temperature Yesterday

Maximum temperature yesterday: 58 °F (at 3:00 pm)
Minimum temperature yesterday: 38 °F (at 4:00 am)
Average temperature yesterday: 50 °F

High & Low Weather Summary for the Past Weeks

 TemperatureHumidityPressure
High61 °F (Mar 11, 2:00 pm)99% (Mar 7, 6:00 am)30.35 "Hg (Mar 7, 6:00 am)
Low38 °F (Mar 15, 6:00 am)20% (Mar 17, 9:00 am)29.26 "Hg (Mar 11, 4:00 am)
Average51 °F61%29.95 "Hg
* Reported Mar 4 7:00 pm — Mar 19 7:00 pm, Shizuoka. Weather by CustomWeather, © 2019

Note: Actual official high and low records may vary slightly from our data, if they occured in-between our weather recording intervals... More about our weather records

Advertising

Shizuoka Weather History for the Previous 24 Hours

Scroll right to see more
 ConditionsComfort  
Time TempWeatherWind HumidityBarometerVisibility
7:00 pm
Tue, Mar 19
54 °FCool.3 mph79%29.93 "Hg12 mi
6:00 pm54 °FCool.3 mph75%29.93 "Hg12 mi
5:00 pm54 °FCool.5 mph74%29.91 "Hg12 mi
4:00 pm54 °FLight rain. Cloudy.7 mph76%29.91 "Hg12 mi
3:00 pm56 °FLight rain. Cloudy.2 mph63%29.93 "Hg12 mi
2:00 pm57 °FLight rain. Cloudy.5 mph60%29.97 "Hg12 mi
1:00 pm58 °FRefreshingly cool.10 mph58%29.99 "Hg12 mi
12:00 pm59 °FRefreshingly cool.7 mph56%30.02 "Hg12 mi
11:00 am57 °FRefreshingly cool.3 mph58%30.05 "Hg12 mi
10:00 am57 °FRefreshingly cool.5 mph57%30.06 "Hg12 mi
9:00 am55 °FCool.5 mph60%30.09 "Hg12 mi
8:00 am54 °FCool.5 mph59%30.09 "Hg12 mi
7:00 am51 °FCool.5 mph66%30.08 "Hg12 mi
6:00 am50 °FCool.6 mph68%30.09 "Hg12 mi
5:00 am50 °FCool.6 mph63%30.09 "Hg12 mi
4:00 am49 °FCool.6 mph63%30.09 "Hg12 mi
3:00 am48 °FCool.6 mph65%30.09 "Hg12 mi
2:00 am49 °FCool.5 mph60%30.10 "Hg12 mi
1:00 am49 °FCool.5 mph50%30.13 "Hg12 mi
12:00 am49 °FCool.5 mph50%30.14 "Hg12 mi
11:00 pm
Mon, Mar 18
49 °FCool.6 mph53%30.16 "Hg12 mi
10:00 pm49 °FCool.7 mph57%30.16 "Hg12 mi
9:00 pm52 °FCool.8 mph44%30.17 "Hg12 mi
8:00 pm53 °FCool.9 mph58%30.17 "Hg12 mi
Weather by CustomWeather, © 2019

See weather overview